Location: Demre
(36.2444°N, 29.9850°E)
Time: 11:15:00
(UTC+00:00)

Meteor 2-20 - Pass Details

Date: 11 March 2026
Orbit: 939 x 958 km, 82.5° (Epoch: 11 April)

Event Time Altitude Azimuth Distance (km) Brightness Sun altitude
Rises 16:24:11 0° 354° (N) 3,644 7.6 -4.9°
Reaches altitude 10° 16:26:42 10° 356° (N) 2,694 6.9 -5.4°
Maximum altitude 16:32:53 77° 82° (E) 985 4.4 -6.7°
Drops below altitude 10° 16:39:00 10° 169° (S) 2,672 6.7 -7.9°
Sets 16:41:29 0° 171° (S) 3,612 7.4 -8.4°
